Regional Weather Roundup
Issued by NWS

Home | Current Version | Previous Version | Text Only | Print | Product List | Glossary Off
Versions: 1 2 3 4 5 6 7 8 9 10 11 12 13 14 15 16 17 18 19 20 21 22 23 24 25 26 27 28 29 30 31 32 33 34 35 36 37 38 39 40 41 42 43 44 45 46 47 48 49 50

000
ASUS43 KFSD 271610
RWRSD

WEATHER ROUNDUP FOR SOUTH DAKOTA
NATIONAL WEATHER SERVICE SIOUX FALLS SD
1000 AM CST SAT DEC 27 2014

NOTE: "FAIR" INDICATES FEW OR NO CLOUDS BELOW 12,000 FEET WITH NO
SIGNIFICANT WEATHER AND/OR OBSTRUCTIONS TO VISIBILITY.


SDZ001>005-009-010-012>017-271700-
NORTHWEST AND NORTH CENTRAL SOUTH DAKOTA

CITY           SKY/WX    TMP DP  RH WIND       PRES   REMARKS
BUFFALO          N/A     18  14  84 SW9       29.99S WCI   7
FAITH            N/A     21  15  78 W9        30.10R WCI  11
MOBRIDGE       CLOUDY    11   7  84 S5        30.10R WCI   3
$$

SDZ012>016-024>037-041>051-057-063-072>074-271700-
SOUTHWEST AND SOUTH CENTRAL SOUTH DAKOTA

CITY           SKY/WX    TMP DP  RH WIND       PRES   REMARKS
RAPID CTY ARPT MOSUNNY   12   6  77 CALM      30.10F
PIERRE         SUNNY      9   6  88 SW8       30.16R WCI  -3
CUSTER         SUNNY     19   9  65 W7        29.99S WCI  10
ELLSWORTH AFB  MOSUNNY   10   4  79 W2        30.09S
PHILIP         SUNNY     13   8  81 W7        30.17R WCI   3
PINE RIDGE     SUNNY     15  10  80 W6        30.14R WCI   6
SPEARFISH      FAIR      18  10  73 CALM      30.06S
WINNER         FAIR      16   8  71 SW9       30.18R WCI   4
$$

SDZ004>011-016>023-039-040-271700-
NORTHEAST SOUTH DAKOTA

CITY           SKY/WX    TMP DP  RH WIND       PRES   REMARKS
ABERDEEN       SUNNY      8   3  80 SW9       30.15F WCI  -5
WATERTOWN      SUNNY      8   2  76 W7        30.13R WCI  -3
SISSETON         N/A     10   5  80 SE3       30.13S
$$

SDZ017-020-022-023-036>040-048>070-271700-
SOUTHEAST SOUTH DAKOTA

CITY           SKY/WX    TMP DP  RH WIND       PRES   REMARKS
SIOUX FALLS    SUNNY     12   8  84 W9        30.19R WCI   0
HURON          MOSUNNY    6   3  87 SW6       30.20S FOG     WCI  -4
CHAMBERLAIN    SUNNY      7   4  88 W7        30.19S WCI  -4
MITCHELL         N/A     10   6  84 W5        30.23R WCI   2
YANKTON        MOSUNNY   10   7  85 W8        30.26R WCI  -1
$$

ABBREVIATIONS USED IN REMARKS
   TC - TEMPERATURE IN CELSIUS
  WCI - WIND CHILL INDEX
   HX - HEAT INDEX
  VSB - VISIBILITY



USA.gov is the U.S. government's official web portal to all federal, state and local government web resources and services.